GW4881 Weather Reports


time (UTC)temp
C
wind
direction
speed
KPH
gust
KPH
rain 1hr
cm
rain 24hr
cm
rain mn
cm
humidity
%
barometer
mb
20260509013303 22 0 0.0 3.2 0.00 0.00 0.00 91 1014.0
20260509012804 22 333 0.0 0.0 0.00 0.00 0.00 92 1014.0
20260509012301 22 240 3.2 4.8 0.00 0.00 0.00 92 1014.0
20260509011802 22 354 0.0 3.2 0.00 0.00 0.00 92 1014.0
20260509011303 22 27 0.0 1.6 0.00 0.00 0.00 92 1014.0
20260509010802 22 183 0.0 3.2 0.00 0.00 0.00 92 1014.0
20260509010302 21 266 0.0 1.6 0.00 0.00 0.00 93 1014.0
20260509005802 21 0 0.0 0.0 0.00 0.00 0.00 93 1014.0
20260509005305 21 255 1.6 3.2 0.00 0.00 0.00 93 1014.0
20260509004802 21 66 0.0 1.6 0.00 0.00 0.00 93 1014.0
20260509004303 21 74 0.0 1.6 0.00 0.00 0.00 93 1014.0
20260509003802 21 0 0.0 0.0 0.00 0.00 0.00 93 1014.0
20260509003301 21 285 1.6 3.2 0.00 0.00 0.00 94 1014.0
20260509002801 21 230 0.0 1.6 0.00 0.00 0.00 93 1014.0
20260509002306 21 292 1.6 3.2 0.00 0.00 0.00 94 1014.0
20260509001801 21 247 0.0 1.6 0.00 0.00 0.00 94 1014.0
20260509001301 22 350 1.6 3.2 0.00 0.00 0.00 94 1013.0
20260509000801 22 67 3.2 4.8 0.00 0.00 0.00 93 1013.0
20260509000305 22 69 1.6 3.2 0.00 0.00 0.00 93 1013.0
20260508235803 22 255 0.0 3.2 0.00 0.00 0.00 93 1013.0
20260508235306 22 295 1.6 3.2 0.00 0.00 0.00 93 1013.0
20260508234803 22 223 0.0 0.0 0.00 0.00 0.00 93 1013.0
20260508234303 22 345 0.0 3.2 0.00 0.00 0.00 93 1013.0
20260508233801 22 56 0.0 1.6 0.00 0.00 0.00 93 1013.0
20260508233305 22 67 1.6 4.8 0.00 0.00 0.00 93 1013.0
20260508232803 22 285 3.2 4.8 0.00 0.00 0.00 93 1013.0
20260508232306 22 141 0.0 3.2 0.00 0.00 0.00 93 1013.0
20260508231803 22 97 0.0 1.6 0.00 0.00 0.00 92 1013.0
20260508231303 22 268 0.0 1.6 0.00 0.00 0.00 92 1013.0
20260508230802 22 78 0.0 0.0 0.00 0.00 0.00 92 1013.0
20260508230302 22 48 1.6 4.8 0.00 0.00 0.00 92 1013.0
20260508225803 22 62 1.6 4.8 0.00 0.00 0.00 92 1013.0
20260508225301 22 355 0.0 1.6 0.00 0.00 0.00 93 1013.0
20260508224801 22 52 1.6 3.2 0.00 0.00 0.00 93 1012.0
20260508224302 22 38 0.0 3.2 0.00 0.00 0.00 93 1012.0
20260508223802 22 10 0.0 1.6 0.00 0.00 0.00 93 1012.0
20260508223304 22 56 1.6 6.4 0.00 0.00 0.00 93 1012.0
20260508222803 22 68 1.6 4.8 0.00 0.00 0.00 93 1012.0
20260508222306 22 14 0.0 3.2 0.00 0.00 0.00 93 1012.0
20260508221804 22 279 1.6 3.2 0.00 0.00 0.00 93 1012.0
20260508221304 22 57 1.6 4.8 0.00 0.00 0.00 93 1012.0
20260508220805 22 62 4.8 6.4 0.00 0.00 0.00 93 1012.0
20260508220303 22 303 0.0 1.6 0.00 0.00 0.00 93 1013.0
20260508215801 22 267 1.6 3.2 0.00 0.00 0.00 93 1012.0
20260508215306 22 147 0.0 1.6 0.00 0.00 0.00 92 1012.0
20260508214803 22 74 3.2 4.8 0.00 0.00 0.00 92 1012.0
20260508214302 22 223 0.0 1.6 0.00 0.00 0.00 92 1012.0
20260508213803 22 252 0.0 1.6 0.00 0.00 0.00 92 1012.0
20260508213304 22 65 0.0 1.6 0.00 0.00 0.00 91 1013.0
20260508212802 22 294 1.6 3.2 0.00 0.00 0.00 91 1013.0
20260508212306 22 235 1.6 3.2 0.00 0.00 0.00 91 1013.0
20260508211802 22 49 0.0 1.6 0.00 0.00 0.00 90 1013.0
20260508211302 22 39 0.0 1.6 0.00 0.00 0.00 90 1013.0
20260508210803 22 40 1.6 3.2 0.00 0.00 0.00 91 1013.0
20260508210302 22 62 1.6 6.4 0.00 0.00 0.00 91 1013.0
20260508205802 22 67 3.2 6.4 0.00 0.00 0.00 91 1013.0
20260508205306 22 64 1.6 3.2 0.00 0.00 0.00 91 1013.0
20260508204802 23 53 3.2 4.8 0.00 0.00 0.00 91 1013.0
20260508204304 23 44 1.6 4.8 0.00 0.00 0.00 91 1013.0
20260508203801 23 71 1.6 4.8 0.00 0.00 0.00 91 1013.0
20260508203302 23 54 0.0 1.6 0.00 0.00 0.00 91 1013.0
20260508202801 23 46 1.6 4.8 0.00 0.00 0.00 90 1013.0
20260508202306 23 72 1.6 3.2 0.00 0.00 0.00 90 1013.0
20260508201802 23 260 1.6 3.2 0.00 0.00 0.00 90 1013.0
20260508201303 23 241 1.6 4.8 0.00 0.00 0.00 90 1013.0
20260508200802 23 286 1.6 3.2 0.00 0.00 0.00 91 1013.0
20260508200302 23 68 1.6 4.8 0.00 0.00 0.00 91 1013.0
20260508195803 23 70 3.2 6.4 0.00 0.00 0.00 90 1013.0
20260508195305 23 298 1.6 3.2 0.00 0.00 0.00 90 1013.0
20260508194801 23 2 1.6 4.8 0.00 0.00 0.00 90 1013.0
20260508194304 23 62 3.2 9.7 0.00 0.00 0.00 90 1013.0
20260508193802 23 12 1.6 4.8 0.00 0.00 0.00 89 1013.0
20260508193301 23 325 1.6 4.8 0.00 0.00 0.00 89 1013.0
20260508192802 23 51 3.2 11.3 0.00 0.00 0.00 88 1013.0
20260508192305 23 61 3.2 4.8 0.00 0.00 0.00 88 1013.0
20260508191802 24 66 3.2 6.4 0.00 0.00 0.00 88 1013.0
20260508191301 24 80 1.6 6.4 0.00 0.00 0.00 88 1013.0
20260508190802 24 48 3.2 4.8 0.00 0.00 0.00 88 1013.0
20260508190306 24 44 3.2 6.4 0.00 0.00 0.00 88 1014.0
20260508185803 24 30 1.6 3.2 0.00 0.00 0.00 88 1014.0
20260508185301 24 47 3.2 4.8 0.00 0.00 0.00 88 1014.0
20260508184802 24 54 3.2 6.4 0.00 0.00 0.00 88 1014.0
20260508184305 24 39 3.2 8.0 0.00 0.00 0.00 88 1014.0
20260508183806 24 20 1.6 4.8 0.00 0.00 0.00 88 1014.0
20260508183302 24 261 1.6 4.8 0.00 0.00 0.00 88 1014.0
20260508182802 24 45 3.2 6.4 0.00 0.00 0.00 87 1014.0
20260508182306 24 47 3.2 6.4 0.00 0.00 0.00 87 1014.0
20260508181805 24 27 1.6 6.4 0.00 0.00 0.00 87 1014.0
20260508181303 24 43 3.2 9.7 0.00 0.00 0.00 87 1014.0
20260508180802 24 230 1.6 3.2 0.00 0.00 0.00 87 1014.0
20260508180306 24 62 1.6 4.8 0.00 0.00 0.00 87 1014.0
20260508175801 24 44 3.2 6.4 0.00 0.00 0.00 87 1014.0
20260508175306 25 56 3.2 4.8 0.00 0.00 0.00 86 1014.0
20260508174801 25 58 3.2 6.4 0.00 0.00 0.00 87 1014.0
20260508174302 25 52 3.2 6.4 0.00 0.00 0.00 87 1015.0
20260508173803 25 46 6.4 12.9 0.00 0.00 0.00 87 1015.0
20260508173302 25 49 3.2 8.0 0.00 0.00 0.00 87 1015.0
20260508172801 25 34 3.2 9.7 0.00 0.00 0.00 87 1015.0
20260508172307 25 40 6.4 11.3 0.00 0.00 0.00 86 1015.0
20260508171803 25 44 3.2 9.7 0.00 0.00 0.00 86 1015.0
20260508171302 25 50 3.2 8.0 0.00 0.00 0.00 86 1015.0
20260508170802 25 39 3.2 6.4 0.00 0.00 0.00 86 1015.0
20260508170302 25 33 3.2 9.7 0.00 0.00 0.00 86 1015.0
20260508165806 25 33 3.2 6.4 0.00 0.00 0.00 86 1015.0
20260508165301 25 34 3.2 6.4 0.00 0.00 0.00 86 1015.0
20260508164802 25 22 3.2 6.4 0.00 0.00 0.00 85 1015.0
20260508164302 25 47 3.2 6.4 0.00 0.00 0.00 85 1015.0
20260508163802 25 45 4.8 8.0 0.00 0.00 0.00 85 1015.0
20260508163303 25 45 6.4 12.9 0.00 0.00 0.00 84 1015.0
20260508162802 25 179 3.2 4.8 0.00 0.00 0.00 84 1015.0
20260508162306 25 42 3.2 6.4 0.00 0.00 0.00 83 1015.0
20260508161802 25 42 3.2 6.4 0.00 0.00 0.00 83 1014.0
20260508161302 25 33 3.2 6.4 0.00 0.00 0.00 83 1014.0
20260508160803 25 57 4.8 11.3 0.00 0.00 0.00 83 1014.0
20260508160305 25 54 3.2 8.0 0.00 0.00 0.00 83 1014.0
20260508155803 26 54 6.4 12.9 0.00 0.00 0.00 83 1014.0
20260508155305 26 51 4.8 11.3 0.00 0.00 0.00 83 1014.0
20260508154802 26 47 4.8 9.7 0.00 0.00 0.00 83 1014.0
20260508154301 26 44 3.2 8.0 0.00 0.00 0.00 83 1014.0
20260508153804 26 41 4.8 9.7 0.00 0.00 0.00 83 1014.0
20260508153301 26 58 4.8 8.0 0.00 0.00 0.00 83 1014.0
20260508152802 26 54 3.2 8.0 0.00 0.00 0.00 83 1014.0
20260508152306 26 40 4.8 8.0 0.00 0.00 0.00 83 1014.0
20260508151804 26 43 4.8 8.0 0.00 0.00 0.00 82 1014.0
20260508151302 26 38 4.8 9.7 0.00 0.00 0.00 81 1014.0
20260508150802 26 36 4.8 9.7 0.00 0.00 0.00 80 1014.0
20260508150301 26 53 3.2 6.4 0.00 0.00 0.00 80 1014.0
20260508145802 26 72 3.2 4.8 0.00 0.00 0.00 80 1013.0
20260508145302 26 4 1.6 3.2 0.00 0.00 0.00 79 1013.0
20260508144802 26 51 4.8 9.7 0.00 0.00 0.00 79 1013.0
20260508144301 26 39 3.2 6.4 0.00 0.00 0.00 79 1013.0
20260508143803 27 39 3.2 9.7 0.00 0.00 0.00 78 1013.0
20260508143304 27 45 4.8 8.0 0.00 0.00 0.00 78 1013.0
20260508142802 27 68 3.2 4.8 0.00 0.00 0.00 78 1013.0
20260508142301 27 56 4.8 8.0 0.00 0.00 0.00 78 1013.0
20260508141801 27 32 3.2 6.4 0.00 0.00 0.00 77 1013.0
20260508141305 27 43 3.2 8.0 0.00 0.00 0.00 76 1013.0
20260508140304 27 44 3.2 6.4 0.00 0.00 0.00 75 1013.0
20260508135803 27 50 3.2 6.4 0.00 0.00 0.00 74 1012.0
20260508135306 27 47 1.6 4.8 0.00 0.00 0.00 74 1013.0
20260508134803 27 47 3.2 6.4 0.00 0.00 0.00 74 1012.0
20260508134303 27 23 3.2 6.4 0.00 0.00 0.00 73 1012.0
20260508133802 27 46 3.2 6.4 0.00 0.00 0.00 73 1012.0
20260508133304 27 52 1.6 3.2 0.00 0.00 0.00 72 1012.0
20260508132802 27 21 3.2 9.7 0.00 0.00 0.00 70 1012.0
20260508132306 27 46 4.8 8.0 0.00 0.00 0.00 70 1012.0
20260508131804 27 59 4.8 8.0 0.00 0.00 0.00 69 1012.0
20260508131302 27 56 4.8 6.4 0.00 0.00 0.00 67 1012.0
20260508130803 27 47 3.2 8.0 0.00 0.00 0.00 67 1012.0
20260508130302 27 42 1.6 4.8 0.00 0.00 0.00 66 1012.0
20260508125801 27 34 3.2 4.8 0.00 0.00 0.00 66 1011.0
20260508125305 27 53 4.8 9.7 0.00 0.00 0.00 65 1011.0
20260508124801 27 17 4.8 11.3 0.00 0.00 0.00 67 1011.0
20260508124302 28 50 6.4 16.1 0.00 0.00 0.00 67 1011.0
20260508123802 28 48 4.8 8.0 0.00 0.00 0.00 68 1011.0
20260508123302 28 44 6.4 14.5 0.00 0.00 0.00 68 1011.0
20260508122802 29 46 8.0 16.1 0.00 0.00 0.00 69 1011.0
20260508122306 30 42 8.0 12.9 0.00 0.00 0.00 69 1011.0
20260508121806 31 33 6.4 16.1 0.00 0.00 0.00 65 1011.0
20260508121304 31 46 3.2 4.8 0.00 0.00 0.00 55 1010.0
20260508120802 31 22 3.2 8.0 0.00 0.00 0.00 55 1010.0
20260508120301 31 62 6.4 12.9 0.00 0.00 0.00 52 1010.0
20260508115801 31 70 4.8 11.3 0.00 0.00 0.00 51 1010.0
20260508115306 31 350 3.2 6.4 0.00 0.00 0.00 51 1010.0
20260508114804 31 337 3.2 6.4 0.00 0.00 0.00 51 1010.0
20260508114301 31 63 3.2 4.8 0.00 0.00 0.00 52 1010.0
20260508113805 31 334 4.8 11.3 0.00 0.00 0.00 53 1010.0
20260508113302 31 324 3.2 9.7 0.00 0.00 0.00 52 1010.0
20260508112802 32 328 6.4 9.7 0.00 0.00 0.00 50 1010.0
20260508112307 32 317 3.2 6.4 0.00 0.00 0.00 51 1010.0
20260508111801 32 17 3.2 8.0 0.00 0.00 0.00 51 1010.0
20260508111303 32 32 3.2 11.3 0.00 0.00 0.00 50 1010.0
20260508110802 32 2 3.2 9.7 0.00 0.00 0.00 49 1010.0
20260508110303 32 278 3.2 6.4 0.00 0.00 0.00 50 1010.0
20260508105804 31 64 3.2 8.0 0.00 0.00 0.00 50 1010.0
20260508105306 31 63 1.6 4.8 0.00 0.00 0.00 50 1010.0
20260508104802 31 359 3.2 6.4 0.00 0.00 0.00 51 1010.0
20260508104304 32 357 3.2 6.4 0.00 0.00 0.00 50 1010.0
20260508103802 32 21 4.8 14.5 0.00 0.00 0.00 50 1010.0
20260508103303 32 36 3.2 6.4 0.00 0.00 0.00 50 1010.0
20260508102804 32 296 3.2 6.4 0.00 0.00 0.00 50 1010.0
20260508102306 32 320 3.2 9.7 0.00 0.00 0.00 49 1010.0
20260508101803 32 56 4.8 11.3 0.00 0.00 0.00 50 1010.0
20260508101303 32 29 3.2 6.4 0.00 0.00 0.00 50 1010.0
20260508100805 31 359 3.2 6.4 0.00 0.00 0.00 50 1010.0
20260508100303 31 33 3.2 6.4 0.00 0.00 0.00 51 1011.0
20260508095803 31 322 3.2 9.7 0.00 0.00 0.00 52 1011.0
20260508095306 31 57 4.8 9.7 0.00 0.00 0.00 53 1011.0
20260508094804 30 54 3.2 8.0 0.00 0.00 0.00 54 1011.0
20260508094302 30 59 3.2 6.4 0.00 0.00 0.00 55 1011.0
20260508093804 30 62 3.2 6.4 0.00 0.00 0.00 55 1011.0
20260508093302 30 57 3.2 8.0 0.00 0.00 0.00 55 1011.0
20260508092804 30 54 6.4 12.9 0.00 0.00 0.00 55 1011.0
20260508092311 31 72 4.8 8.0 0.00 0.00 0.00 55 1011.0
20260508091801 31 61 6.4 9.7 0.00 0.00 0.00 55 1011.0
20260508091303 31 50 4.8 9.7 0.00 0.00 0.00 55 1011.0
20260508090802 31 29 4.8 9.7 0.00 0.00 0.00 55 1011.0
20260508090304 31 359 3.2 4.8 0.00 0.00 0.00 55 1011.0
20260508085805 31 54 6.4 12.9 0.00 0.00 0.00 54 1011.0
20260508085302 31 219 1.6 4.8 0.00 0.00 0.00 55 1011.0
20260508084804 31 47 4.8 11.3 0.00 0.00 0.00 54 1011.0
20260508084303 31 59 6.4 11.3 0.00 0.00 0.00 54 1011.0
20260508083803 31 39 3.2 9.7 0.00 0.00 0.00 55 1011.0
20260508083301 31 60 6.4 12.9 0.00 0.00 0.00 53 1011.0
20260508082802 31 44 3.2 9.7 0.00 0.00 0.00 53 1011.0
20260508082306 31 54 4.8 12.9 0.00 0.00 0.00 53 1012.0
20260508081326 31 54 3.2 9.7 0.00 0.00 0.00 53 1011.0
20260508080802 31 341 4.8 12.9 0.00 0.00 0.00 54 1012.0
20260508080305 31 329 4.8 9.7 0.00 0.00 0.00 55 1012.0
20260508075805 31 60 8.0 12.9 0.00 0.00 0.00 54 1012.0
20260508075308 31 54 6.4 12.9 0.00 0.00 0.00 55 1012.0
20260508074804 31 35 4.8 11.3 0.00 0.00 0.00 56 1012.0
20260508074305 31 311 4.8 6.4 0.00 0.00 0.00 55 1012.0
20260508073804 30 70 4.8 9.7 0.00 0.00 0.00 56 1012.0
20260508073303 30 306 4.8 8.0 0.00 0.00 0.00 56 1012.0
20260508072801 30 59 3.2 9.7 0.00 0.00 0.00 56 1013.0
20260508072307 30 63 3.2 6.4 0.00 0.00 0.00 58 1013.0
20260508071802 30 300 3.2 6.4 0.00 0.00 0.00 58 1013.0
20260508071301 30 326 4.8 12.9 0.00 0.00 0.00 57 1013.0
20260508070802 30 65 6.4 11.3 0.00 0.00 0.00 58 1013.0
20260508070302 30 317 1.6 4.8 0.00 0.00 0.00 59 1013.0
20260508065801 30 33 4.8 9.7 0.00 0.00 0.00 58 1013.0
20260508065306 30 51 8.0 12.9 0.00 0.00 0.00 56 1013.0
20260508064803 30 351 6.4 11.3 0.00 0.00 0.00 56 1013.0
20260508064307 30 131 1.6 4.8 0.00 0.00 0.00 57 1013.0
20260508063803 30 33 3.2 4.8 0.00 0.00 0.00 58 1013.0
20260508063304 30 54 3.2 6.4 0.00 0.00 0.00 58 1013.0
20260508062803 30 14 1.6 4.8 0.00 0.00 0.00 61 1013.0
20260508062306 29 64 1.6 4.8 0.00 0.00 0.00 62 1013.0
20260508061809 30 66 3.2 4.8 0.00 0.00 0.00 62 1013.0
20260508061301 30 339 3.2 8.0 0.00 0.00 0.00 61 1013.0
20260508060804 29 37 1.6 4.8 0.00 0.00 0.00 62 1013.0
20260508060303 29 83 3.2 6.4 0.00 0.00 0.00 63 1013.0
20260508055803 29 248 1.6 4.8 0.00 0.00 0.00 63 1013.0
20260508055306 28 64 4.8 6.4 0.00 0.00 0.00 64 1014.0
20260508054803 28 46 3.2 6.4 0.00 0.00 0.00 65 1014.0
20260508054301 28 43 3.2 6.4 0.00 0.00 0.00 66 1014.0
20260508053801 28 78 3.2 6.4 0.00 0.00 0.00 66 1014.0
20260508053306 28 56 1.6 3.2 0.00 0.00 0.00 66 1014.0
20260508052804 28 54 4.8 9.7 0.00 0.00 0.00 65 1014.0
20260508052307 28 60 3.2 9.7 0.00 0.00 0.00 66 1014.0
20260508051803 28 354 1.6 8.0 0.00 0.00 0.00 67 1014.0
20260508051304 28 38 3.2 8.0 0.00 0.00 0.00 68 1014.0
20260508050804 28 45 3.2 6.4 0.00 0.00 0.00 68 1014.0
20260508050302 28 62 6.4 8.0 0.00 0.00 0.00 66 1014.0
20260508045801 27 52 3.2 8.0 0.00 0.00 0.00 69 1014.0
20260508045306 27 165 0.0 1.6 0.00 0.00 0.00 73 1014.0
20260508044802 27 313 1.6 3.2 0.00 0.00 0.00 74 1014.0
20260508044301 27 74 4.8 8.0 0.00 0.00 0.00 72 1014.0
20260508043802 27 62 6.4 8.0 0.00 0.00 0.00 72 1014.0
20260508043304 27 340 3.2 6.4 0.00 0.00 0.00 76 1014.0
20260508042801 27 324 4.8 8.0 0.00 0.00 0.00 74 1014.0
20260508042307 27 68 4.8 6.4 0.00 0.00 0.00 73 1014.0
20260508041802 27 332 1.6 4.8 0.00 0.00 0.00 74 1014.0
20260508041302 27 140 1.6 3.2 0.00 0.00 0.00 77 1014.0
20260508040804 27 43 3.2 6.4 0.00 0.00 0.00 76 1014.0
20260508040304 26 259 0.0 1.6 0.00 0.00 0.00 76 1014.0
20260508035804 26 28 1.6 3.2 0.00 0.00 0.00 79 1014.0
20260508035306 26 311 1.6 4.8 0.00 0.00 0.00 78 1014.0
20260508034803 26 12 0.0 3.2 0.00 0.00 0.00 79 1014.0
20260508034302 26 264 0.0 3.2 0.00 0.00 0.00 78 1015.0
20260508033802 26 301 0.0 3.2 0.00 0.00 0.00 78 1015.0
20260508033304 26 304 0.0 1.6 0.00 0.00 0.00 79 1015.0
20260508032803 26 55 3.2 6.4 0.00 0.00 0.00 78 1015.0
20260508032306 26 49 1.6 3.2 0.00 0.00 0.00 79 1015.0
20260508031806 25 306 1.6 3.2 0.00 0.00 0.00 81 1015.0
20260508031302 25 350 1.6 3.2 0.00 0.00 0.00 83 1015.0
20260508030804 25 23 3.2 6.4 0.00 0.00 0.00 81 1015.0
20260508030302 25 118 0.0 1.6 0.00 0.00 0.00 82 1015.0
20260508025802 25 28 1.6 3.2 0.00 0.00 0.00 82 1015.0
20260508025305 25 35 3.2 6.4 0.00 0.00 0.00 82 1014.0
20260508024802 25 88 1.6 3.2 0.00 0.00 0.00 83 1015.0
20260508024302 25 11 1.6 3.2 0.00 0.00 0.00 85 1015.0
20260508023802 25 54 3.2 6.4 0.00 0.00 0.00 86 1015.0
20260508023303 24 36 3.2 6.4 0.00 0.00 0.00 87 1015.0
20260508022806 24 53 4.8 6.4 0.00 0.00 0.00 89 1015.0
20260508022306 24 64 3.2 6.4 0.00 0.00 0.00 89 1015.0
20260508021802 24 46 3.2 8.0 0.00 0.00 0.00 89 1015.0
20260508021302 24 336 1.6 3.2 0.00 0.00 0.00 90 1014.0
20260508020802 23 49 3.2 4.8 0.00 0.00 0.00 90 1014.0
20260508020302 23 56 4.8 6.4 0.00 0.00 0.00 90 1014.0
20260508015801 23 47 3.2 8.0 0.00 0.00 0.00 90 1014.0
20260508015305 23 48 3.2 4.8 0.00 0.00 0.00 90 1014.0
20260508014802 23 34 1.6 3.2 0.00 0.00 0.00 89 1014.0
20260508014302 23 32 1.6 6.4 0.00 0.00 0.00 90 1014.0
20260508013802 23 9 1.6 4.8 0.00 0.00 0.00 90 1014.0